Regional Weather Roundup
Issued by NWS

Home | Current Version | Previous Version | Graphics & Text | Print | Product List | Glossary On
Versions: 1 2 3 4 5 6 7 8 9 10 11 12 13 14 15 16 17 18 19 20 21 22 23 24 25 26 27 28 29 30 31 32 33 34 35 36 37 38 39 40 41 42 43 44 45 46 47 48 49 50
000
ASUS43 KTOP 280908
RWRKS

WEATHER ROUNDUP FOR KANSAS
NATIONAL WEATHER SERVICE GOODLAND KS
400 AM CDT MON JUL 28 2014

NOTE:  "FAIR" INDICATES FEW OR NO CLOUDS BELOW 12,000 FEET WITH NO
SIGNIFICANT WEATHER AND/OR OBSTRUCTIONS TO VISIBILITY.

KSZ001>006-013>018-027>032-041>047-281000-
NORTHWEST KANSAS

CITY           SKY/WX    TMP DP  RH WIND       PRES   REMARKS
GOODLAND       CLOUDY    62  54  74 S7        30.32S
HAYS           PTCLDY    64  52  63 NE5       30.24S
HILL CITY      MOCLDY    61  54  77 N6        30.26R
RUSSELL        MOCLDY    62  54  74 CALM      30.22S
$$

KSZ061>065-074>080-084>089-281000-
SOUTHWEST KANSAS

CITY           SKY/WX    TMP DP  RH WIND       PRES   REMARKS
DODGE CITY     PTCLDY    65  54  67 E3        30.25S
ELKHART          N/A     70  55  59 NW3         N/A
GARDEN CITY    MOCLDY    66  60  81 N3        30.26S
GREAT BEND     MOCLDY    64  57  77 NE3       30.21S
LIBERAL        MOCLDY    70  57  64 N3        30.27S
PRATT          PTCLDY    68  52  56 CALM      30.23R
$$

KSZ066>073-081>083-090>101-281000-
SOUTHEAST KANSAS

CITY           SKY/WX    TMP DP  RH WIND       PRES   REMARKS
CHANUTE        CLEAR     62  57  83 NW5       30.16R
COFFEYVILLE    FOG       64  61  90 CALM      30.14S VSB 3/4
HUTCHINSON     PTCLDY    68  56  65 NE7       30.19F
MEDICINE LODGE   N/A     70  56  61 E3        30.19S
NEWTON         PTCLDY    66  54  63 NE6       30.22S
PARSONS        CLEAR     67  58  72 NE5       30.16R
WICHITA INTL   PTCLDY    69  57  65 NE8       30.18S
WICHITA JABRA  PTCLDY    63  57  81 CALM      30.18S
WICHITA MCCONL CLEAR     68  58  71 NE6       30.18S
WINFIELD       CLEAR     65  58  78 CALM      30.18R
$$

KSZ007>012-019>026-033>040-048>060-102>105-281000-
NORTHEAST KANSAS

CITY           SKY/WX    TMP DP  RH WIND       PRES   REMARKS
CONCORDIA      CLEAR     63  58  83 N9        30.22S
EMPORIA        CLEAR     62  58  86 CALM      30.18R
LAWRENCE       CLEAR     61  57  87 NW8       30.16S
MANHATTAN      CLEAR     64  57  78 N3        30.19R
MARYSVILLE     CLEAR     59  55  88 N3        30.21S
OLATHE IND     CLEAR     62  58  86 NW7       30.16S
OLATHE EXE     CLEAR     64  58  80 NW3       30.15R
SALINA         CLEAR     66  56  70 MISG      30.20S
TOPEKA BILLARD CLEAR     63  58  83 N5        30.18R
TOPEKA FORBES  CLEAR     61  56  83 NW6       30.18R
$$



USA.gov is the U.S. government's official web portal to all federal, state and local government web resources and services.